Thermopolis, WY

3:00 AM MDT on August 28, 2016 (GMT -0600)
Thermopolis

Weather History for KTBX - December, 2013

Change the Weather History Date:

Sunday, December 15, 2013

  Actual Average (KWRL) Record (KWRL)
Temperature  
Mean Temperature 35 °F 17 °F  
Max Temperature 42 °F 30 °F 61 °F (2006)
Min Temperature 28 °F 4 °F -24 °F (1972)
Degree Days  
Heating Degree Days 30 48  
Month to date heating degree days 689  
Since 1 July heating degree days 2581  
Cooling Degree Days 0 0  
Month to date cooling degree days 0  
Year to date cooling degree days 535  
Moisture  
Dew Point 12 °F    
Average Humidity 35    
Maximum Humidity 55    
Minimum Humidity 21    
Precipitation  
Precipitation 0.00 in 0.01 in 0.15 in (2014)
Month to date precipitation 0.12  
Year to date precipitation 7.46  
Sea Level Pressure  
Sea Level Pressure 30.19 in    
Wind  
Wind Speed 6 mph (SW)    
Max Wind Speed 17 mph    
Max Gust Speed 21 mph    
Visibility 10 miles    
Events      
T = Trace of Precipitation, MM = Missing Value Source: NWS Daily Summary

Daily Weather History Graph

Daily Weather History Graph

Search for Another Location

Airport or City:

Trip Planner

Search our weather history database for the weather conditions in past years. The results will help you decide how hot, cold, wet, or windy it might be!

Date:

Astronomy

Dec. 15, 2013 Rise Set
Actual Time 7:39 AM MST 4:37 PM MST
Civil Twilight 7:06 AM MST 5:10 PM MST
Nautical Twilight 6:30 AM MST 5:46 PM MST
Astronomical Twilight 5:55 AM MST 6:21 PM MST
Moon 3:46 PM MST (12/15) 5:56 AM MST (12/15)
Length of Visible Light 10h 03m
Length of Day
8h 58m
Waxing Gibbous, 98% of the Moon is Illuminated
Dec 15
Waxing Gibbous
Dec 17
Full
Dec 25
Last Quarter
Jan 1
New
Jan 7
First Quarter

Hourly Weather History & Observations

Time (MST) Temp. Windchill Dew Point Humidity Pressure Visibility Wind Dir Wind Speed Gust Speed Precip Events Conditions
12:15 AM 30.2 °F - 14.0 °F 51% 30.20 in 10.0 mi Calm Calm - N/A   Clear
12:35 AM 28.4 °F 24.6 °F 14.0 °F 55% 30.20 in 10.0 mi SSE 3.5 mph - N/A   Clear
12:55 AM 30.2 °F - 15.8 °F 55% 30.20 in 10.0 mi Calm Calm - N/A   Clear
1:15 AM 28.4 °F 22.2 °F 14.0 °F 55% 30.20 in 10.0 mi SSE 5.8 mph - N/A   Clear
1:35 AM 35.6 °F 30.7 °F 17.6 °F 48% 30.20 in 10.0 mi WNW 5.8 mph - N/A   Clear
1:55 AM 35.6 °F 30.7 °F 17.6 °F 48% 30.19 in 10.0 mi WNW 5.8 mph - N/A   Clear
2:15 AM 33.8 °F - 14.0 °F 44% 30.20 in 10.0 mi Calm Calm - N/A   Clear
2:35 AM 35.6 °F - 17.6 °F 48% 30.19 in 10.0 mi Calm Calm - N/A   Clear
2:55 AM 32.0 °F 26.4 °F 17.6 °F 55% 30.20 in 10.0 mi SE 5.8 mph - N/A   Clear
3:15 AM 33.8 °F 25.8 °F 17.6 °F 52% 30.20 in 10.0 mi South 10.4 mph - N/A   Clear
3:35 AM 33.8 °F 28.6 °F 17.6 °F 52% 30.20 in 10.0 mi South 5.8 mph - N/A   Clear
3:55 AM 35.6 °F 28.6 °F 17.6 °F 48% 30.20 in 10.0 mi South 9.2 mph - N/A   Clear
4:15 AM 35.6 °F 29.9 °F 17.6 °F 48% 30.20 in 10.0 mi South 6.9 mph - N/A   Clear
4:35 AM 35.6 °F 31.7 °F 17.6 °F 48% 30.19 in 10.0 mi SSW 4.6 mph - N/A   Clear
5:15 AM 35.6 °F 29.2 °F 15.8 °F 44% 30.20 in 10.0 mi West 8.1 mph - N/A   Clear
5:35 AM 37.4 °F 34.9 °F 15.8 °F 41% 30.20 in 10.0 mi WNW 3.5 mph - N/A   Clear
5:55 AM 35.6 °F 32.8 °F 15.8 °F 44% 30.20 in 10.0 mi SW 3.5 mph - N/A   Clear
6:15 AM 37.4 °F 34.9 °F 15.8 °F 41% 30.20 in 10.0 mi West 3.5 mph - N/A   Clear
6:35 AM 37.4 °F - 14.0 °F 38% 30.20 in 10.0 mi Calm Calm - N/A   Clear
6:55 AM 35.6 °F 29.2 °F 15.8 °F 44% 30.19 in 10.0 mi SSW 8.1 mph - N/A   Clear
7:15 AM 35.6 °F 28.6 °F 15.8 °F 44% 30.20 in 10.0 mi SSW 9.2 mph - N/A   Clear
7:35 AM 35.6 °F 28.6 °F 15.8 °F 44% 30.20 in 10.0 mi SSW 9.2 mph - N/A   Clear
7:55 AM 35.6 °F 29.2 °F 15.8 °F 44% 30.20 in 10.0 mi South 8.1 mph - N/A   Clear
8:15 AM 37.4 °F 32.8 °F 14.0 °F 38% 30.20 in 10.0 mi South 5.8 mph - N/A   Clear
8:35 AM 37.4 °F 31.4 °F 12.2 °F 36% 30.20 in 10.0 mi SW 8.1 mph - N/A   Clear
8:55 AM 41.0 °F 37.1 °F 10.4 °F 29% 30.20 in 10.0 mi SSW 5.8 mph - N/A   Clear
9:15 AM 41.0 °F 37.1 °F 10.4 °F 29% 30.21 in 10.0 mi SW 5.8 mph - N/A   Clear
9:35 AM 41.0 °F 35.8 °F 8.6 °F 26% 30.21 in 10.0 mi SSW 8.1 mph - N/A   Clear
9:55 AM 41.0 °F 37.1 °F 8.6 °F 26% 30.21 in 10.0 mi SSW 5.8 mph - N/A   Clear
10:15 AM 41.0 °F 36.4 °F 10.4 °F 29% 30.21 in 10.0 mi SSW 6.9 mph - N/A   Clear
10:35 AM 41.0 °F 36.4 °F 6.8 °F 24% 30.22 in 10.0 mi South 6.9 mph - N/A   Clear
10:55 AM 42.8 °F 40.1 °F 6.8 °F 23% 30.21 in 10.0 mi South 4.6 mph - N/A   Clear
11:15 AM 42.8 °F 39.3 °F 10.4 °F 27% 30.21 in 10.0 mi SW 5.8 mph - N/A   Clear
11:35 AM 42.8 °F 39.3 °F 8.6 °F 25% 30.21 in 10.0 mi WSW 5.8 mph - N/A   Clear
11:55 AM 41.0 °F 36.4 °F 10.4 °F 29% 30.20 in 10.0 mi SSW 6.9 mph - N/A   Clear
12:15 PM 41.0 °F 35.8 °F 12.2 °F 31% 30.20 in 10.0 mi SW 8.1 mph - N/A   Clear
12:35 PM 42.8 °F 36.2 °F 10.4 °F 27% 30.20 in 10.0 mi WSW 12.7 mph - N/A   Clear
12:55 PM 42.8 °F 37.0 °F 8.6 °F 25% 30.19 in 10.0 mi West 10.4 mph - N/A   Clear
1:15 PM 42.8 °F 41.1 °F 5.0 °F 21% 30.19 in 10.0 mi WSW 3.5 mph - N/A   Clear
1:35 PM 42.8 °F 35.8 °F 8.6 °F 25% 30.18 in 10.0 mi SSW 13.8 mph - N/A   Clear
1:55 PM 41.0 °F 35.2 °F 12.2 °F 31% 30.18 in 10.0 mi SSW 9.2 mph - N/A   Clear
2:15 PM 42.8 °F 37.5 °F 10.4 °F 27% 30.16 in 10.0 mi SSW 9.2 mph - N/A   Clear
2:35 PM 41.0 °F 32.8 °F 14.0 °F 33% 30.16 in 10.0 mi South 16.1 mph 20.7 mph N/A   Clear
2:55 PM 41.0 °F 34.3 °F 14.0 °F 33% 30.16 in 10.0 mi South 11.5 mph - N/A   Clear
3:15 PM 41.0 °F 34.3 °F 14.0 °F 33% 30.17 in 10.0 mi WSW 11.5 mph 17.3 mph N/A   Clear
3:35 PM 41.0 °F 33.9 °F 14.0 °F 33% 30.18 in 10.0 mi SSW 12.7 mph - N/A   Clear
3:55 PM 41.0 °F 34.3 °F 15.8 °F 36% 30.18 in 10.0 mi SSW 11.5 mph - N/A   Clear
4:15 PM 41.0 °F 38.0 °F 14.0 °F 33% 30.18 in 10.0 mi SW 4.6 mph - N/A   Clear
4:35 PM 41.0 °F 35.8 °F 14.0 °F 33% 30.18 in 10.0 mi SSW 8.1 mph - N/A   Clear
4:55 PM 41.0 °F 34.7 °F 17.6 °F 39% 30.18 in 10.0 mi SSW 10.4 mph - N/A   Clear
5:15 PM 39.2 °F 32.5 °F 17.6 °F 42% 30.18 in 10.0 mi SSW 10.4 mph - N/A   Clear
5:35 PM 41.0 °F 38.0 °F 14.0 °F 33% 30.19 in 10.0 mi SW 4.6 mph - N/A   Clear
5:55 PM 42.8 °F - 10.4 °F 27% 30.18 in 10.0 mi Calm Calm - N/A   Clear
6:15 PM 42.8 °F 41.1 °F 10.4 °F 27% 30.18 in 10.0 mi ESE 3.5 mph - N/A   Clear
6:35 PM 42.8 °F 38.6 °F 10.4 °F 27% 30.18 in 10.0 mi NNW 6.9 mph - N/A   Clear
6:55 PM 41.0 °F 33.9 °F 12.2 °F 31% 30.19 in 10.0 mi WNW 12.7 mph - N/A   Clear
7:15 PM 41.0 °F 32.5 °F 10.4 °F 29% 30.18 in 10.0 mi WNW 17.3 mph - N/A   Clear
7:35 PM 41.0 °F 34.7 °F 10.4 °F 29% 30.19 in 10.0 mi West 10.4 mph - N/A   Clear
7:55 PM 41.0 °F 35.2 °F 10.4 °F 29% 30.18 in 10.0 mi SW 9.2 mph - N/A   Clear
8:15 PM 37.4 °F 29.3 °F 14.0 °F 38% 30.18 in 10.0 mi SSW 12.7 mph - N/A   Clear
8:35 PM 37.4 °F 28.2 °F 10.4 °F 33% 30.18 in 10.0 mi South 16.1 mph - N/A   Clear
8:55 PM 39.2 °F 33.0 °F 10.4 °F 31% 30.19 in 10.0 mi SW 9.2 mph - N/A   Clear
9:15 PM 39.2 °F 33.6 °F 8.6 °F 28% 30.20 in 10.0 mi West 8.1 mph 17.3 mph N/A   Clear
9:35 PM 41.0 °F 37.1 °F 6.8 °F 24% 30.19 in 10.0 mi NW 5.8 mph - N/A   Clear
9:55 PM 41.0 °F 36.4 °F 5.0 °F 23% 30.19 in 10.0 mi North 6.9 mph - N/A   Clear
10:15 PM 39.2 °F 34.2 °F 8.6 °F 28% 30.21 in 10.0 mi North 6.9 mph - N/A   Clear
10:35 PM 41.0 °F 35.8 °F 8.6 °F 26% 30.19 in 10.0 mi NNE 8.1 mph - N/A   Clear
10:55 PM 39.2 °F 35.9 °F 6.8 °F 26% 30.20 in 10.0 mi North 4.6 mph - N/A   Clear
11:15 PM 39.2 °F - 8.6 °F 28% 30.20 in 10.0 mi Calm Calm - N/A   Clear
11:35 PM 39.2 °F - 6.8 °F 26% 30.20 in 10.0 mi Calm Calm - N/A   Clear
11:55 PM 37.4 °F 32.8 °F 8.6 °F 30% 30.20 in 10.0 mi ESE 5.8 mph - N/A   Clear